TimeHST,TemperatureF,Dew PointF,Humidity,Sea Level PressureIn,VisibilityMPH,Wind Direction,Wind SpeedMPH,Gust SpeedMPH,PrecipitationIn,Events,Conditions,WindDirDegrees,DateUTC
12:57 AM,77.0,66.0,69,29.99,10.0,East,11.5,18.4,N/A,,Mostly Cloudy,80,2012-10-20 10:57:00
1:57 AM,75.2,64.9,70,29.97,10.0,East,4.6,-,N/A,,Scattered Clouds,90,2012-10-20 11:57:00
2:57 AM,75.2,68.0,78,29.96,10.0,ENE,5.8,-,N/A,,Mostly Cloudy,60,2012-10-20 12:57:00
3:24 AM,75.2,69.8,83,29.97,6.2,ENE,5.8,-,N/A,,Mostly Cloudy,70,2012-10-20 13:24:00
3:57 AM,75.2,70.0,84,29.95,10.0,East,6.9,-,N/A,,Mostly Cloudy,80,2012-10-20 13:57:00
4:47 AM,75.2,68.0,78,29.96,6.2,ENE,5.8,-,N/A,,Overcast,70,2012-10-20 14:47:00
4:57 AM,75.2,68.0,78,29.95,10.0,Variable,5.8,-,N/A,,Overcast,0,2012-10-20 14:57:00
5:21 AM,75.2,68.0,78,29.96,6.2,Variable,4.6,-,N/A,,Overcast,0,2012-10-20 15:21:00
5:57 AM,75.2,68.0,78,29.94,10.0,ENE,6.9,16.1,N/A,,Overcast,60,2012-10-20 15:57:00
6:06 AM,75.2,69.8,83,29.96,6.2,East,4.6,-,N/A,,Mostly Cloudy,90,2012-10-20 16:06:00
6:57 AM,75.2,69.1,81,29.96,10.0,Variable,3.5,-,N/A,,Mostly Cloudy,0,2012-10-20 16:57:00
7:57 AM,77.0,69.1,76,29.97,10.0,East,8.1,-,N/A,,Mostly Cloudy,90,2012-10-20 17:57:00
8:57 AM,80.6,71.6,74,29.98,10.0,ESE,11.5,-,N/A,,Mostly Cloudy,110,2012-10-20 18:57:00
9:04 AM,80.6,69.8,70,30.00,6.2,ENE,10.4,18.4,N/A,,Mostly Cloudy,70,2012-10-20 19:04:00
9:41 AM,80.6,69.8,70,30.00,6.2,East,10.4,21.9,N/A,,Scattered Clouds,80,2012-10-20 19:41:00
9:57 AM,80.6,69.1,68,29.98,10.0,East,13.8,21.9,N/A,,Partly Cloudy,100,2012-10-20 19:57:00
10:57 AM,82.4,68.0,62,29.98,10.0,ENE,10.4,19.6,N/A,,Scattered Clouds,70,2012-10-20 20:57:00
11:57 AM,84.2,68.0,58,29.96,10.0,ENE,9.2,18.4,N/A,,Scattered Clouds,70,2012-10-20 21:57:00
12:57 PM,84.2,69.1,60,29.94,10.0,NE,10.4,-,N/A,,Scattered Clouds,50,2012-10-20 22:57:00
1:57 PM,84.2,70.0,62,29.92,10.0,ENE,12.7,18.4,N/A,,Scattered Clouds,60,2012-10-20 23:57:00
2:57 PM,84.2,69.1,60,29.91,10.0,ENE,12.7,-,N/A,,Scattered Clouds,70,2012-10-21 00:57:00
3:57 PM,82.4,69.1,64,29.92,10.0,ENE,10.4,20.7,N/A,,Scattered Clouds,70,2012-10-21 01:57:00
4:57 PM,82.4,70.0,66,29.93,10.0,ENE,10.4,18.4,N/A,,Scattered Clouds,70,2012-10-21 02:57:00
5:57 PM,77.0,70.0,79,29.96,10.0,ENE,6.9,-,0.00,,Scattered Clouds,70,2012-10-21 03:57:00
6:57 PM,77.0,71.1,82,29.97,10.0,ENE,10.4,17.3,N/A,,Scattered Clouds,70,2012-10-21 04:57:00
7:57 PM,77.0,69.1,76,29.99,10.0,ENE,4.6,-,N/A,,Scattered Clouds,60,2012-10-21 05:57:00
8:57 PM,77.0,71.1,82,29.99,10.0,East,10.4,18.4,N/A,,Overcast,80,2012-10-21 06:57:00
9:57 PM,77.0,69.1,76,29.99,10.0,East,10.4,-,N/A,,Scattered Clouds,80,2012-10-21 07:57:00
10:57 PM,75.2,70.0,84,29.99,10.0,East,11.5,17.3,N/A,,Mostly Cloudy,100,2012-10-21 08:57:00
11:15 PM,75.2,68.0,78,30.00,6.2,East,10.4,16.1,N/A,,Mostly Cloudy,90,2012-10-21 09:15:00
11:23 PM,75.2,68.0,78,30.00,6.2,East,10.4,17.3,N/A,,Mostly Cloudy,100,2012-10-21 09:23:00
11:57 PM,75.2,68.0,78,29.99,10.0,East,9.2,19.6,N/A,,Mostly Cloudy,90,2012-10-21 09:57:00